Location: Unspecified
(0.0000°N, 0.0000°E)
Time: 15:40:24
(UTC+02:00)

GPS 2-15 Rocket1 - Visible Passes

Search period start: 01 May 2016 00:00
Search period end: 11 May 2016 00:00
Orbit: 625 x 677 km, 19.8° (Epoch: 30 April)

Date Brightness Start Highest point End Pass type
(mag) Time Alt. Az. Time Alt. Az. Time Alt. Az.
01 May 5.4 05:32:37 22° ENE 05:32:37 22° ENE 05:34:16 10° ENE visible
01 May 4.7 07:10:16 10° WNW 07:13:56 23° NNW 07:17:36 10° NE visible
02 May 4.5 05:57:28 31° NNE 05:57:28 31° NNE 06:00:29 10° NE visible
03 May 4.8 06:22:17 20° NNW 06:22:50 21° NNW 06:26:20 10° NNE visible
04 May 5.4 06:47:33 10° NW 06:49:36 13° NNW 06:51:38 10° NNE visible
05 May 5.8 05:34:11 13° NNE 05:34:11 13° NNE 05:35:04 10° NNE visible
06 May 5.6 05:58:56 12° N 05:58:56 12° N 06:00:14 10° N visible
09 May 5.3 21:16:06 10° SSW 21:17:46 13° S 21:17:46 13° S visible
10 May 5.3 21:41:28 10° SSW 21:42:52 15° SSW 21:42:52 15° SSW visible
